Time,TemperatureF,DewpointF,PressureIn,WindDirection,WindDirectionDegrees,WindSpeedMPH,WindSpeedGustMPH,Humidity,HourlyPrecipIn,Conditions,Clouds,dailyrainin,SoftwareType,DateUTC
2013-02-16 00:04:00,50.4,37.9,30.25,NE,38,1.0,1.0,62,0.00,,,0.00,Wunderground v.1.15,2013-02-16 08:04:00,
2013-02-16 00:10:00,50.1,37.6,30.25,NE,38,1.0,1.0,62,0.00,,,0.00,Wunderground v.1.15,2013-02-16 08:10:00,
2013-02-16 00:16:00,49.9,37.4,30.25,NE,38,1.0,2.0,62,0.00,,,0.00,Wunderground v.1.15,2013-02-16 08:16:00,
2013-02-16 00:22:00,49.6,37.5,30.25,NE,38,2.0,2.0,63,0.00,,,0.00,Wunderground v.1.15,2013-02-16 08:22:00,
2013-02-16 00:27:00,49.4,37.3,30.25,NE,38,2.0,2.0,63,0.00,,,0.00,Wunderground v.1.15,2013-02-16 08:27:00,
2013-02-16 00:33:00,49.3,37.6,30.25,NE,38,0.0,1.0,64,0.00,,,0.00,Wunderground v.1.15,2013-02-16 08:33:00,
2013-02-16 00:39:00,49.1,37.4,30.25,NE,38,0.0,1.0,64,0.00,,,0.00,Wunderground v.1.15,2013-02-16 08:39:00,
2013-02-16 00:45:00,49.1,37.0,30.25,NE,38,2.0,2.0,63,0.00,,,0.00,Wunderground v.1.15,2013-02-16 08:45:00,
2013-02-16 00:50:00,49.2,37.1,30.25,NE,38,1.0,2.0,63,0.00,,,0.00,Wunderground v.1.15,2013-02-16 08:50:00,
2013-02-16 00:56:00,49.2,37.1,30.25,NE,38,0.0,2.0,63,0.00,,,0.00,Wunderground v.1.15,2013-02-16 08:56:00,
2013-02-16 01:02:00,49.1,37.0,30.25,NE,38,0.0,0.0,63,0.00,,,0.00,Wunderground v.1.15,2013-02-16 09:02:00,
2013-02-16 01:07:00,49.1,37.0,30.25,NE,38,0.0,0.0,63,0.00,,,0.00,Wunderground v.1.15,2013-02-16 09:07:00,
2013-02-16 01:13:00,49.1,37.0,30.25,NE,38,0.0,0.0,63,0.00,,,0.00,Wunderground v.1.15,2013-02-16 09:13:00,
2013-02-16 01:19:00,49.0,37.3,30.25,NE,38,0.0,0.0,64,0.00,,,0.00,Wunderground v.1.15,2013-02-16 09:19:00,
2013-02-16 01:25:00,48.8,37.2,30.25,NE,38,0.0,0.0,64,0.00,,,0.00,Wunderground v.1.15,2013-02-16 09:25:00,
2013-02-16 01:30:00,48.7,37.1,30.25,NE,38,0.0,0.0,64,0.00,,,0.00,Wunderground v.1.15,2013-02-16 09:30:00,
2013-02-16 01:36:00,48.4,37.2,30.25,NE,38,0.0,0.0,65,0.00,,,0.00,Wunderground v.1.15,2013-02-16 09:36:00,
2013-02-16 01:42:00,47.9,37.1,30.26,NE,38,0.0,0.0,66,0.00,,,0.00,Wunderground v.1.15,2013-02-16 09:42:00,
2013-02-16 01:48:00,47.4,37.0,30.26,NE,38,0.0,0.0,67,0.00,,,0.00,Wunderground v.1.15,2013-02-16 09:48:00,
2013-02-16 01:53:00,47.1,37.1,30.26,NE,38,0.0,0.0,68,0.00,,,0.00,Wunderground v.1.15,2013-02-16 09:53:00,
2013-02-16 01:59:00,46.9,36.9,30.25,NE,38,0.0,0.0,68,0.00,,,0.00,Wunderground v.1.15,2013-02-16 09:59:00,
2013-02-16 02:04:00,46.7,36.7,30.25,NE,38,0.0,0.0,68,0.00,,,0.00,Wunderground v.1.15,2013-02-16 10:04:00,
2013-02-16 02:09:00,46.6,36.6,30.25,NE,38,0.0,0.0,68,0.00,,,0.00,Wunderground v.1.15,2013-02-16 10:09:00,
2013-02-16 02:14:00,46.5,36.9,30.25,NE,38,0.0,0.0,69,0.00,,,0.00,Wunderground v.1.15,2013-02-16 10:14:00,
2013-02-16 02:19:00,46.3,36.7,30.25,NE,38,0.0,0.0,69,0.00,,,0.00,Wunderground v.1.15,2013-02-16 10:19:00,
2013-02-16 02:24:00,46.2,37.0,30.25,NE,38,0.0,0.0,70,0.00,,,0.00,Wunderground v.1.15,2013-02-16 10:24:00,
2013-02-16 02:29:00,46.0,37.1,30.25,NE,38,0.0,0.0,71,0.00,,,0.00,Wunderground v.1.15,2013-02-16 10:29:00,
2013-02-16 02:34:00,45.8,37.3,30.25,NE,38,1.0,1.0,72,0.00,,,0.00,Wunderground v.1.15,2013-02-16 10:34:00,
2013-02-16 02:39:00,45.5,37.3,30.25,NE,38,0.0,1.0,73,0.00,,,0.00,Wunderground v.1.15,2013-02-16 10:39:00,
2013-02-16 02:44:00,45.2,37.4,30.25,NE,38,0.0,1.0,74,0.00,,,0.00,Wunderground v.1.15,2013-02-16 10:44:00,
2013-02-16 02:49:00,44.9,37.5,30.25,NE,38,0.0,1.0,75,0.00,,,0.00,Wunderground v.1.15,2013-02-16 10:49:00,
2013-02-16 02:54:00,44.5,37.1,30.25,NE,38,2.0,3.0,75,0.00,,,0.00,Wunderground v.1.15,2013-02-16 10:54:00,
2013-02-16 02:59:00,44.3,37.2,30.24,NE,38,0.0,3.0,76,0.00,,,0.00,Wunderground v.1.15,2013-02-16 10:59:00,
2013-02-16 03:04:00,44.1,37.0,30.25,NE,38,2.0,2.0,76,0.00,,,0.00,Wunderground v.1.15,2013-02-16 11:04:00,
2013-02-16 03:09:00,44.1,37.0,30.24,NE,38,1.0,2.0,76,0.00,,,0.00,Wunderground v.1.15,2013-02-16 11:09:00,
2013-02-16 03:14:00,44.1,37.0,30.24,NE,38,0.0,2.0,76,0.00,,,0.00,Wunderground v.1.15,2013-02-16 11:14:00,
2013-02-16 03:19:00,44.1,37.0,30.24,NE,38,1.0,2.0,76,0.00,,,0.00,Wunderground v.1.15,2013-02-16 11:19:00,
2013-02-16 03:24:00,44.1,37.0,30.24,NE,38,1.0,2.0,76,0.00,,,0.00,Wunderground v.1.15,2013-02-16 11:24:00,
2013-02-16 03:30:00,44.2,37.1,30.24,NE,38,1.0,1.0,76,0.00,,,0.00,Wunderground v.1.15,2013-02-16 11:30:00,
2013-02-16 03:35:00,44.4,37.3,30.24,NE,38,1.0,2.0,76,0.00,,,0.00,Wunderground v.1.15,2013-02-16 11:35:00,
2013-02-16 03:40:00,44.5,37.4,30.24,NE,38,1.0,1.0,76,0.00,,,0.00,Wunderground v.1.15,2013-02-16 11:40:00,
2013-02-16 03:45:00,44.6,37.2,30.24,NE,38,0.0,2.0,75,0.00,,,0.00,Wunderground v.1.15,2013-02-16 11:45:00,
2013-02-16 03:50:00,44.6,37.2,30.23,NE,38,2.0,2.0,75,0.00,,,0.00,Wunderground v.1.15,2013-02-16 11:50:00,
2013-02-16 03:55:00,44.6,37.2,30.23,NE,38,0.0,2.0,75,0.00,,,0.00,Wunderground v.1.15,2013-02-16 11:55:00,
2013-02-16 04:00:00,44.6,37.2,30.23,NE,38,0.0,1.0,75,0.00,,,0.00,Wunderground v.1.15,2013-02-16 12:00:00,
2013-02-16 04:05:00,44.5,37.1,30.23,NE,38,0.0,1.0,75,0.00,,,0.00,Wunderground v.1.15,2013-02-16 12:05:00,
2013-02-16 04:10:00,44.4,37.0,30.23,NE,38,0.0,1.0,75,0.00,,,0.00,Wunderground v.1.15,2013-02-16 12:10:00,
2013-02-16 04:15:00,44.3,36.9,30.23,NE,38,0.0,1.0,75,0.00,,,0.00,Wunderground v.1.15,2013-02-16 12:15:00,
2013-02-16 04:20:00,44.2,36.8,30.23,NE,38,0.0,0.0,75,0.00,,,0.00,Wunderground v.1.15,2013-02-16 12:20:00,
2013-02-16 04:25:00,44.1,37.0,30.23,NE,38,0.0,0.0,76,0.00,,,0.00,Wunderground v.1.15,2013-02-16 12:25:00,
2013-02-16 04:30:00,44.0,36.9,30.23,NE,38,0.0,1.0,76,0.00,,,0.00,Wunderground v.1.15,2013-02-16 12:30:00,
2013-02-16 04:35:00,43.8,36.7,30.23,NE,38,0.0,1.0,76,0.00,,,0.00,Wunderground v.1.15,2013-02-16 12:35:00,
2013-02-16 04:40:00,43.8,37.1,30.22,NE,38,0.0,0.0,77,0.00,,,0.00,Wunderground v.1.15,2013-02-16 12:40:00,
2013-02-16 04:45:00,43.7,36.6,30.22,NE,38,0.0,1.0,76,0.00,,,0.00,Wunderground v.1.15,2013-02-16 12:45:00,
2013-02-16 04:50:00,43.6,36.9,30.22,NE,38,0.0,2.0,77,0.00,,,0.00,Wunderground v.1.15,2013-02-16 12:50:00,
2013-02-16 04:55:00,43.5,36.8,30.22,NE,38,0.0,2.0,77,0.00,,,0.00,Wunderground v.1.15,2013-02-16 12:55:00,
2013-02-16 05:01:00,43.4,36.7,30.22,NE,38,0.0,1.0,77,0.00,,,0.00,Wunderground v.1.15,2013-02-16 13:01:00,
2013-02-16 05:06:00,43.3,36.9,30.22,NE,38,1.0,2.0,78,0.00,,,0.00,Wunderground v.1.15,2013-02-16 13:06:00,
2013-02-16 05:11:00,43.3,36.9,30.22,NE,38,2.0,3.0,78,0.00,,,0.00,Wunderground v.1.15,2013-02-16 13:11:00,
2013-02-16 05:16:00,43.5,37.1,30.22,NE,38,0.0,3.0,78,0.00,,,0.00,Wunderground v.1.15,2013-02-16 13:16:00,
2013-02-16 05:21:00,43.6,37.2,30.22,NE,38,0.0,2.0,78,0.00,,,0.00,Wunderground v.1.15,2013-02-16 13:21:00,
2013-02-16 05:26:00,43.8,37.4,30.22,NE,38,1.0,3.0,78,0.00,,,0.00,Wunderground v.1.15,2013-02-16 13:26:00,
2013-02-16 05:31:00,44.1,37.3,30.22,NE,38,2.0,2.0,77,0.00,,,0.00,Wunderground v.1.15,2013-02-16 13:31:00,
2013-02-16 05:36:00,44.4,37.3,30.22,NE,38,1.0,3.0,76,0.00,,,0.00,Wunderground v.1.15,2013-02-16 13:36:00,
2013-02-16 05:41:00,44.6,37.5,30.22,NE,38,1.0,3.0,76,0.00,,,0.00,Wunderground v.1.15,2013-02-16 13:41:00,
2013-02-16 05:46:00,44.7,37.3,30.22,NE,38,1.0,3.0,75,0.00,,,0.00,Wunderground v.1.15,2013-02-16 13:46:00,
2013-02-16 05:51:00,44.9,37.5,30.22,NE,38,1.0,2.0,75,0.00,,,0.00,Wunderground v.1.15,2013-02-16 13:51:00,
2013-02-16 05:56:00,45.0,37.6,30.22,NE,38,2.0,3.0,75,0.00,,,0.00,Wunderground v.1.15,2013-02-16 13:56:00,
2013-02-16 06:02:00,45.2,37.4,30.22,NE,38,2.0,3.0,74,0.00,,,0.00,Wunderground v.1.15,2013-02-16 14:02:00,
2013-02-16 06:07:00,45.4,37.6,30.22,NE,38,3.0,4.0,74,0.00,,,0.00,Wunderground v.1.15,2013-02-16 14:07:00,
2013-02-16 06:12:00,45.5,37.7,30.22,NE,38,3.0,5.0,74,0.00,,,0.00,Wunderground v.1.15,2013-02-16 14:12:00,
2013-02-16 06:17:00,45.9,37.7,30.22,NE,38,2.0,5.0,73,0.00,,,0.00,Wunderground v.1.15,2013-02-16 14:17:00,
2013-02-16 06:22:00,46.2,37.7,30.22,NE,38,4.0,4.0,72,0.00,,,0.00,Wunderground v.1.15,2013-02-16 14:22:00,
2013-02-16 06:27:00,46.5,38.0,30.22,NE,38,1.0,4.0,72,0.00,,,0.00,Wunderground v.1.15,2013-02-16 14:27:00,
2013-02-16 06:32:00,46.7,37.8,30.21,NE,38,2.0,3.0,71,0.00,,,0.00,Wunderground v.1.15,2013-02-16 14:32:00,
2013-02-16 06:37:00,46.9,37.6,30.22,NE,38,0.0,3.0,70,0.00,,,0.00,Wunderground v.1.15,2013-02-16 14:37:00,
2013-02-16 06:42:00,47.0,37.7,30.22,NE,38,0.0,2.0,70,0.00,,,0.00,Wunderground v.1.15,2013-02-16 14:42:00,
2013-02-16 06:47:00,47.0,37.7,30.21,NE,38,0.0,2.0,70,0.00,,,0.00,Wunderground v.1.15,2013-02-16 14:47:00,
2013-02-16 06:53:00,46.9,37.6,30.21,NE,38,0.0,1.0,70,0.00,,,0.00,Wunderground v.1.15,2013-02-16 14:53:00,
2013-02-16 06:58:00,46.9,37.6,30.22,NE,38,0.0,1.0,70,0.00,,,0.00,Wunderground v.1.15,2013-02-16 14:58:00,
2013-02-16 07:03:00,46.8,37.5,30.22,NE,38,1.0,1.0,70,0.00,,,0.00,Wunderground v.1.15,2013-02-16 15:03:00,
2013-02-16 07:08:00,46.8,37.9,30.22,NE,38,1.0,2.0,71,0.00,,,0.00,Wunderground v.1.15,2013-02-16 15:08:00,
2013-02-16 07:13:00,46.8,37.9,30.22,NE,38,0.0,1.0,71,0.00,,,0.00,Wunderground v.1.15,2013-02-16 15:13:00,
2013-02-16 07:18:00,46.7,37.8,30.22,NE,38,0.0,1.0,71,0.00,,,0.00,Wunderground v.1.15,2013-02-16 15:18:00,
2013-02-16 07:23:00,46.5,37.6,30.22,NE,38,0.0,1.0,71,0.00,,,0.00,Wunderground v.1.15,2013-02-16 15:23:00,
2013-02-16 07:28:00,46.4,37.9,30.22,NE,38,0.0,1.0,72,0.00,,,0.00,Wunderground v.1.15,2013-02-16 15:28:00,
2013-02-16 07:33:00,46.3,37.8,30.22,NE,38,0.0,0.0,72,0.00,,,0.00,Wunderground v.1.15,2013-02-16 15:33:00,
2013-02-16 07:38:00,46.2,38.0,30.22,NE,38,0.0,0.0,73,0.00,,,0.00,Wunderground v.1.15,2013-02-16 15:38:00,
2013-02-16 07:43:00,46.1,37.9,30.22,NE,38,0.0,0.0,73,0.00,,,0.00,Wunderground v.1.15,2013-02-16 15:43:00,
2013-02-16 07:48:00,46.2,38.4,30.22,NE,38,0.0,0.0,74,0.00,,,0.00,Wunderground v.1.15,2013-02-16 15:48:00,
2013-02-16 07:53:00,46.4,38.6,30.22,NE,38,0.0,1.0,74,0.00,,,0.00,Wunderground v.1.15,2013-02-16 15:53:00,
2013-02-16 07:58:00,46.7,38.9,30.22,NE,38,0.0,1.0,74,0.00,,,0.00,Wunderground v.1.15,2013-02-16 15:58:00,
2013-02-16 08:03:00,47.0,39.1,30.22,NE,38,0.0,1.0,74,0.00,,,0.00,Wunderground v.1.15,2013-02-16 16:03:00,
2013-02-16 08:08:00,47.2,39.7,30.22,NE,38,0.0,1.0,75,0.00,,,0.00,Wunderground v.1.15,2013-02-16 16:08:00,
2013-02-16 08:13:00,47.1,39.2,30.22,NE,38,0.0,2.0,74,0.00,,,0.00,Wunderground v.1.15,2013-02-16 16:13:00,
2013-02-16 08:18:00,47.0,39.5,30.22,NE,38,1.0,2.0,75,0.00,,,0.00,Wunderground v.1.15,2013-02-16 16:18:00,
2013-02-16 08:23:00,47.1,39.9,30.22,NE,38,0.0,1.0,76,0.00,,,0.00,Wunderground v.1.15,2013-02-16 16:23:00,
2013-02-16 08:28:00,47.3,40.5,30.22,NE,38,0.0,2.0,77,0.00,,,0.00,Wunderground v.1.15,2013-02-16 16:28:00,
2013-02-16 08:33:00,47.6,40.4,30.23,NE,38,0.0,1.0,76,0.00,,,0.00,Wunderground v.1.15,2013-02-16 16:33:00,
2013-02-16 08:38:00,48.2,41.0,30.22,NE,38,1.0,3.0,76,0.00,,,0.00,Wunderground v.1.15,2013-02-16 16:38:00,
2013-02-16 08:43:00,48.8,41.2,30.23,NE,38,3.0,4.0,75,0.00,,,0.00,Wunderground v.1.15,2013-02-16 16:43:00,
2013-02-16 08:48:00,49.6,41.3,30.22,NE,38,2.0,4.0,73,0.00,,,0.00,Wunderground v.1.15,2013-02-16 16:48:00,
2013-02-16 08:53:00,50.4,40.6,30.22,NE,36,4.0,6.0,69,0.00,,,0.00,Wunderground v.1.15,2013-02-16 16:53:00,
2013-02-16 08:58:00,51.2,40.6,30.22,NE,34,1.0,6.0,67,0.00,,,0.00,Wunderground v.1.15,2013-02-16 16:58:00,
2013-02-16 09:03:00,51.9,40.5,30.22,NNW,344,6.0,8.0,65,0.00,,,0.00,Wunderground v.1.15,2013-02-16 17:03:00,
2013-02-16 09:08:00,52.4,40.6,30.22,North,355,3.0,8.0,64,0.00,,,0.00,Wunderground v.1.15,2013-02-16 17:08:00,
2013-02-16 09:13:00,52.9,41.0,30.22,North,9,4.0,6.0,64,0.00,,,0.00,Wunderground v.1.15,2013-02-16 17:13:00,
2013-02-16 09:18:00,53.3,41.4,30.22,NNW,346,7.0,8.0,64,0.00,,,0.00,Wunderground v.1.15,2013-02-16 17:18:00,
2013-02-16 09:23:00,53.6,41.3,30.22,North,355,3.0,7.0,63,0.00,,,0.00,Wunderground v.1.15,2013-02-16 17:23:00,
2013-02-16 09:28:00,53.9,41.6,30.22,NNW,344,1.0,7.0,63,0.00,,,0.00,Wunderground v.1.15,2013-02-16 17:28:00,
2013-02-16 09:33:00,54.1,41.8,30.22,NNE,16,4.0,6.0,63,0.00,,,0.00,Wunderground v.1.15,2013-02-16 17:33:00,
2013-02-16 09:38:00,54.3,42.0,30.22,North,350,5.0,9.0,63,0.00,,,0.00,Wunderground v.1.15,2013-02-16 17:38:00,
2013-02-16 09:43:00,54.5,42.2,30.22,NNW,347,1.0,4.0,63,0.00,,,0.00,Wunderground v.1.15,2013-02-16 17:43:00,
2013-02-16 09:48:00,54.8,42.0,30.22,North,5,5.0,6.0,62,0.00,,,0.00,Wunderground v.1.15,2013-02-16 17:48:00,
2013-02-16 09:53:00,54.8,42.0,30.22,NNE,22,4.0,8.0,62,0.00,,,0.00,Wunderground v.1.15,2013-02-16 17:53:00,
2013-02-16 09:58:00,55.1,42.7,30.22,North,11,2.0,8.0,63,0.00,,,0.00,Wunderground v.1.15,2013-02-16 17:58:00,
2013-02-16 10:03:00,55.5,43.1,30.22,North,360,2.0,6.0,63,0.00,,,0.00,Wunderground v.1.15,2013-02-16 18:03:00,
2013-02-16 10:08:00,55.9,43.5,30.22,North,355,4.0,6.0,63,0.00,,,0.00,Wunderground v.1.15,2013-02-16 18:08:00,
2013-02-16 10:13:00,56.3,43.9,30.22,North,355,2.0,3.0,63,0.00,,,0.00,Wunderground v.1.15,2013-02-16 18:13:00,
2013-02-16 10:18:00,56.6,43.7,30.22,North,355,1.0,5.0,62,0.00,,,0.00,Wunderground v.1.15,2013-02-16 18:18:00,
2013-02-16 10:23:00,56.9,43.6,30.22,North,355,1.0,3.0,61,0.00,,,0.00,Wunderground v.1.15,2013-02-16 18:23:00,
2013-02-16 10:28:00,57.1,43.8,30.22,North,355,2.0,4.0,61,0.00,,,0.00,Wunderground v.1.15,2013-02-16 18:28:00,
2013-02-16 10:33:00,57.3,44.4,30.22,North,360,2.0,5.0,62,0.00,,,0.00,Wunderground v.1.15,2013-02-16 18:33:00,
2013-02-16 10:38:00,57.6,44.2,30.22,North,360,2.0,5.0,61,0.00,,,0.00,Wunderground v.1.15,2013-02-16 18:38:00,
2013-02-16 10:43:00,58.0,44.2,30.21,North,355,3.0,5.0,60,0.00,,,0.00,Wunderground v.1.15,2013-02-16 18:43:00,
2013-02-16 10:48:00,58.3,44.0,30.21,North,355,4.0,7.0,59,0.00,,,0.00,Wunderground v.1.15,2013-02-16 18:48:00,
2013-02-16 10:53:00,58.7,44.0,30.21,North,360,6.0,6.0,58,0.00,,,0.00,Wunderground v.1.15,2013-02-16 18:53:00,
2013-02-16 10:58:00,59.1,43.9,30.21,North,355,5.0,7.0,57,0.00,,,0.00,Wunderground v.1.15,2013-02-16 18:58:00,
2013-02-16 11:03:00,59.5,44.2,30.21,North,355,3.0,5.0,57,0.00,,,0.00,Wunderground v.1.15,2013-02-16 19:03:00,
2013-02-16 11:08:00,59.7,44.0,30.21,NNE,17,5.0,6.0,56,0.00,,,0.00,Wunderground v.1.15,2013-02-16 19:08:00,
2013-02-16 11:13:00,59.8,44.1,30.20,NNE,19,4.0,6.0,56,0.00,,,0.00,Wunderground v.1.15,2013-02-16 19:13:00,
2013-02-16 11:18:00,60.1,44.3,30.20,NNE,19,4.0,6.0,56,0.00,,,0.00,Wunderground v.1.15,2013-02-16 19:18:00,
2013-02-16 11:24:00,60.3,44.1,30.20,NNE,26,2.0,8.0,55,0.00,,,0.00,Wunderground v.1.15,2013-02-16 19:24:00,
2013-02-16 11:29:00,60.6,44.3,30.20,NNW,332,4.0,8.0,55,0.00,,,0.00,Wunderground v.1.15,2013-02-16 19:29:00,
2013-02-16 11:34:00,61.0,44.7,30.20,North,5,3.0,7.0,55,0.00,,,0.00,Wunderground v.1.15,2013-02-16 19:34:00,
2013-02-16 11:39:00,61.3,44.5,30.19,North,5,4.0,7.0,54,0.00,,,0.00,Wunderground v.1.15,2013-02-16 19:39:00,
2013-02-16 11:44:00,61.6,45.3,30.19,NE,46,7.0,9.0,55,0.00,,,0.00,Wunderground v.1.15,2013-02-16 19:44:00,
2013-02-16 11:49:00,61.9,45.1,30.19,NE,53,7.0,9.0,54,0.00,,,0.00,Wunderground v.1.15,2013-02-16 19:49:00,
2013-02-16 11:54:00,62.0,45.2,30.19,NE,34,5.0,7.0,54,0.00,,,0.00,Wunderground v.1.15,2013-02-16 19:54:00,
2013-02-16 11:59:00,62.2,45.3,30.18,NNE,27,5.0,7.0,54,0.00,,,0.00,Wunderground v.1.15,2013-02-16 19:59:00,
2013-02-16 12:04:00,62.4,45.5,30.18,NNE,17,1.0,6.0,54,0.00,,,0.00,Wunderground v.1.15,2013-02-16 20:04:00,
2013-02-16 12:09:00,62.7,45.3,30.18,NNW,338,4.0,8.0,53,0.00,,,0.00,Wunderground v.1.15,2013-02-16 20:09:00,
2013-02-16 12:14:00,62.6,45.2,30.18,NNW,348,3.0,5.0,53,0.00,,,0.00,Wunderground v.1.15,2013-02-16 20:14:00,
2013-02-16 12:19:00,63.2,46.8,30.17,North,355,2.0,5.0,55,0.00,,,0.00,Wunderground v.1.15,2013-02-16 20:19:00,
2013-02-16 12:24:00,63.4,45.5,30.17,NNE,21,2.0,6.0,52,0.00,,,0.00,Wunderground v.1.15,2013-02-16 20:24:00,
2013-02-16 12:29:00,63.6,46.1,30.17,NNE,28,4.0,7.0,53,0.00,,,0.00,Wunderground v.1.15,2013-02-16 20:29:00,
2013-02-16 12:34:00,63.7,45.7,30.17,NE,40,4.0,8.0,52,0.00,,,0.00,Wunderground v.1.15,2013-02-16 20:34:00,
2013-02-16 12:39:00,63.9,45.9,30.17,NNE,28,3.0,8.0,52,0.00,,,0.00,Wunderground v.1.15,2013-02-16 20:39:00,
2013-02-16 12:44:00,64.3,45.8,30.16,NE,43,2.0,7.0,51,0.00,,,0.00,Wunderground v.1.15,2013-02-16 20:44:00,
2013-02-16 12:49:00,64.4,45.9,30.16,NNE,17,2.0,7.0,51,0.00,,,0.00,Wunderground v.1.15,2013-02-16 20:49:00,
2013-02-16 12:54:00,64.3,45.3,30.16,NNE,21,6.0,7.0,50,0.00,,,0.00,Wunderground v.1.15,2013-02-16 20:54:00,
2013-02-16 12:59:00,64.4,45.3,30.15,NNE,22,5.0,8.0,50,0.00,,,0.00,Wunderground v.1.15,2013-02-16 20:59:00,
2013-02-16 13:05:00,64.4,45.9,30.15,NNE,28,4.0,5.0,51,0.00,,,0.00,Wunderground v.1.15,2013-02-16 21:05:00,
2013-02-16 13:10:00,64.6,45.5,30.15,NE,38,5.0,5.0,50,0.00,,,0.00,Wunderground v.1.15,2013-02-16 21:10:00,
2013-02-16 13:15:00,64.7,46.1,30.14,NE,49,5.0,7.0,51,0.00,,,0.00,Wunderground v.1.15,2013-02-16 21:15:00,
2013-02-16 13:20:00,65.6,45.9,30.14,NE,44,1.0,3.0,49,0.00,,,0.00,Wunderground v.1.15,2013-02-16 21:20:00,
2013-02-16 13:25:00,65.7,46.0,30.14,NE,43,0.0,7.0,49,0.00,,,0.00,Wunderground v.1.15,2013-02-16 21:25:00,
2013-02-16 13:30:00,65.8,46.1,30.14,NNE,33,2.0,3.0,49,0.00,,,0.00,Wunderground v.1.15,2013-02-16 21:30:00,
2013-02-16 13:35:00,66.1,45.8,30.13,NNE,26,2.0,4.0,48,0.00,,,0.00,Wunderground v.1.15,2013-02-16 21:35:00,
2013-02-16 13:40:00,65.8,46.1,30.13,NNE,27,1.0,2.0,49,0.00,,,0.00,Wunderground v.1.15,2013-02-16 21:40:00,
2013-02-16 13:45:00,66.4,46.7,30.13,ENE,78,1.0,7.0,49,0.00,,,0.00,Wunderground v.1.15,2013-02-16 21:45:00,
2013-02-16 13:50:00,66.4,46.1,30.13,ENE,65,1.0,3.0,48,0.00,,,0.00,Wunderground v.1.15,2013-02-16 21:50:00,
2013-02-16 13:55:00,66.8,47.0,30.13,ENE,63,3.0,5.0,49,0.00,,,0.00,Wunderground v.1.15,2013-02-16 21:55:00,
2013-02-16 14:00:00,67.0,46.1,30.12,ENE,64,5.0,5.0,47,0.00,,,0.00,Wunderground v.1.15,2013-02-16 22:00:00,
2013-02-16 14:05:00,66.6,46.3,30.12,ENE,58,1.0,5.0,48,0.00,,,0.00,Wunderground v.1.15,2013-02-16 22:05:00,
2013-02-16 14:10:00,66.7,45.8,30.12,ENE,58,3.0,4.0,47,0.00,,,0.00,Wunderground v.1.15,2013-02-16 22:10:00,
2013-02-16 14:15:00,66.8,46.5,30.12,ENE,59,3.0,4.0,48,0.00,,,0.00,Wunderground v.1.15,2013-02-16 22:15:00,
2013-02-16 14:20:00,67.2,46.3,30.11,East,98,1.0,2.0,47,0.00,,,0.00,Wunderground v.1.15,2013-02-16 22:20:00,
2013-02-16 14:25:00,67.6,46.6,30.11,ESE,116,1.0,7.0,47,0.00,,,0.00,Wunderground v.1.15,2013-02-16 22:25:00,
2013-02-16 14:30:00,67.2,45.1,30.11,East,83,0.0,3.0,45,0.00,,,0.00,Wunderground v.1.15,2013-02-16 22:30:00,
2013-02-16 14:35:00,67.1,45.6,30.10,East,83,0.0,5.0,46,0.00,,,0.00,Wunderground v.1.15,2013-02-16 22:35:00,
2013-02-16 14:40:00,67.6,44.9,30.10,East,83,3.0,3.0,44,0.00,,,0.00,Wunderground v.1.15,2013-02-16 22:40:00,
2013-02-16 14:45:00,67.8,46.8,30.10,East,83,1.0,5.0,47,0.00,,,0.00,Wunderground v.1.15,2013-02-16 22:45:00,
2013-02-16 14:50:00,67.4,45.9,30.09,NE,37,2.0,3.0,46,0.00,,,0.00,Wunderground v.1.15,2013-02-16 22:50:00,
2013-02-16 14:55:00,67.2,45.1,30.09,NE,38,1.0,5.0,45,0.00,,,0.00,Wunderground v.1.15,2013-02-16 22:55:00,
2013-02-16 15:00:00,67.2,45.1,30.09,NE,38,2.0,2.0,45,0.00,,,0.00,Wunderground v.1.15,2013-02-16 23:00:00,
2013-02-16 15:05:00,68.0,45.3,30.09,NE,38,0.0,3.0,44,0.00,,,0.00,Wunderground v.1.15,2013-02-16 23:05:00,
2013-02-16 15:10:00,67.7,45.6,30.09,NE,38,1.0,2.0,45,0.00,,,0.00,Wunderground v.1.15,2013-02-16 23:10:00,
2013-02-16 15:15:00,68.0,45.9,30.09,NE,38,1.0,3.0,45,0.00,,,0.00,Wunderground v.1.15,2013-02-16 23:15:00,
2013-02-16 15:20:00,67.7,45.0,30.09,ENE,65,2.0,4.0,44,0.00,,,0.00,Wunderground v.1.15,2013-02-16 23:20:00,
2013-02-16 15:25:00,67.4,44.1,30.09,East,91,3.0,5.0,43,0.00,,,0.00,Wunderground v.1.15,2013-02-16 23:25:00,
2013-02-16 15:30:00,67.6,44.3,30.08,East,98,0.0,2.0,43,0.00,,,0.00,Wunderground v.1.15,2013-02-16 23:30:00,
2013-02-16 15:35:00,68.1,45.9,30.09,ESE,114,0.0,5.0,45,0.00,,,0.00,Wunderground v.1.15,2013-02-16 23:35:00,
2013-02-16 15:41:00,67.8,46.3,30.08,ESE,115,2.0,3.0,46,0.00,,,0.00,Wunderground v.1.15,2013-02-16 23:41:00,
2013-02-16 15:46:00,67.9,46.3,30.08,ESE,108,3.0,5.0,46,0.00,,,0.00,Wunderground v.1.15,2013-02-16 23:46:00,
2013-02-16 15:51:00,67.9,45.8,30.08,ESE,108,0.0,2.0,45,0.00,,,0.00,Wunderground v.1.15,2013-02-16 23:51:00,
2013-02-16 15:56:00,67.9,45.8,30.08,ESE,108,2.0,4.0,45,0.00,,,0.00,Wunderground v.1.15,2013-02-16 23:56:00,
2013-02-16 16:01:00,68.1,45.9,30.08,ESE,108,2.0,3.0,45,0.00,,,0.00,Wunderground v.1.15,2013-02-17 00:01:00,
2013-02-16 16:06:00,68.3,46.1,30.08,ESE,108,2.0,3.0,45,0.00,,,0.00,Wunderground v.1.15,2013-02-17 00:06:00,
2013-02-16 16:11:00,67.8,45.7,30.08,ESE,108,2.0,3.0,45,0.00,,,0.00,Wunderground v.1.15,2013-02-17 00:11:00,
2013-02-16 16:16:00,67.7,45.6,30.07,ESE,108,3.0,4.0,45,0.00,,,0.00,Wunderground v.1.15,2013-02-17 00:16:00,
2013-02-16 16:21:00,67.6,46.1,30.07,ESE,108,2.0,4.0,46,0.00,,,0.00,Wunderground v.1.15,2013-02-17 00:21:00,
2013-02-16 16:26:00,67.6,46.1,30.07,ESE,118,3.0,5.0,46,0.00,,,0.00,Wunderground v.1.15,2013-02-17 00:26:00,
2013-02-16 16:31:00,67.8,46.8,30.07,SE,140,3.0,5.0,47,0.00,,,0.00,Wunderground v.1.15,2013-02-17 00:31:00,
2013-02-16 16:36:00,67.7,46.2,30.07,SSE,168,0.0,6.0,46,0.00,,,0.00,Wunderground v.1.15,2013-02-17 00:36:00,
2013-02-16 16:41:00,67.7,46.7,30.07,SSE,168,1.0,3.0,47,0.00,,,0.00,Wunderground v.1.15,2013-02-17 00:41:00,
2013-02-16 16:46:00,67.7,46.7,30.07,SSE,168,3.0,4.0,47,0.00,,,0.00,Wunderground v.1.15,2013-02-17 00:46:00,
2013-02-16 16:51:00,67.7,46.7,30.06,SSE,168,3.0,5.0,47,0.00,,,0.00,Wunderground v.1.15,2013-02-17 00:51:00,
2013-02-16 16:56:00,67.4,46.5,30.07,SSE,168,3.0,5.0,47,0.00,,,0.00,Wunderground v.1.15,2013-02-17 00:56:00,
2013-02-16 17:01:00,67.2,46.3,30.07,SSE,168,3.0,5.0,47,0.00,,,0.00,Wunderground v.1.15,2013-02-17 01:01:00,
2013-02-16 17:06:00,67.1,46.7,30.06,SSE,168,3.0,5.0,48,0.00,,,0.00,Wunderground v.1.15,2013-02-17 01:06:00,
2013-02-16 17:11:00,67.0,46.7,30.06,SSE,168,4.0,5.0,48,0.00,,,0.00,Wunderground v.1.15,2013-02-17 01:11:00,
2013-02-16 17:16:00,67.0,47.2,30.06,South,169,2.0,5.0,49,0.00,,,0.00,Wunderground v.1.15,2013-02-17 01:16:00,
2013-02-16 17:21:00,66.8,47.6,30.06,SSE,167,2.0,5.0,50,0.00,,,0.00,Wunderground v.1.15,2013-02-17 01:21:00,
2013-02-16 17:26:00,66.5,47.8,30.06,SSE,166,2.0,5.0,51,0.00,,,0.00,Wunderground v.1.15,2013-02-17 01:26:00,
2013-02-16 17:31:00,66.1,48.0,30.06,SSE,165,1.0,4.0,52,0.00,,,0.00,Wunderground v.1.15,2013-02-17 01:31:00,
2013-02-16 17:36:00,65.7,48.1,30.06,SSE,165,0.0,5.0,53,0.00,,,0.00,Wunderground v.1.15,2013-02-17 01:36:00,
2013-02-16 17:41:00,65.4,47.8,30.06,SSE,165,1.0,2.0,53,0.00,,,0.00,Wunderground v.1.15,2013-02-17 01:41:00,
2013-02-16 17:46:00,65.1,48.0,30.06,SSE,166,1.0,4.0,54,0.00,,,0.00,Wunderground v.1.15,2013-02-17 01:46:00,
2013-02-16 17:51:00,64.8,48.2,30.06,SSE,166,2.0,2.0,55,0.00,,,0.00,Wunderground v.1.15,2013-02-17 01:51:00,
2013-02-16 17:56:00,64.4,47.9,30.06,SSE,166,1.0,3.0,55,0.00,,,0.00,Wunderground v.1.15,2013-02-17 01:56:00,
2013-02-16 18:01:00,63.9,47.9,30.06,SSE,166,2.0,3.0,56,0.00,,,0.00,Wunderground v.1.15,2013-02-17 02:01:00,
2013-02-16 18:06:00,63.5,47.5,30.05,SSE,166,1.0,4.0,56,0.00,,,0.00,Wunderground v.1.15,2013-02-17 02:06:00,
2013-02-16 18:11:00,63.1,47.1,30.05,SSE,166,0.0,3.0,56,0.00,,,0.00,Wunderground v.1.15,2013-02-17 02:11:00,
2013-02-16 18:16:00,62.8,47.3,30.05,SSE,166,1.0,4.0,57,0.00,,,0.00,Wunderground v.1.15,2013-02-17 02:16:00,
2013-02-16 18:21:00,62.4,47.0,30.05,SSE,166,1.0,3.0,57,0.00,,,0.00,Wunderground v.1.15,2013-02-17 02:21:00,
2013-02-16 18:26:00,62.0,47.0,30.05,SSE,166,2.0,4.0,58,0.00,,,0.00,Wunderground v.1.15,2013-02-17 02:26:00,
2013-02-16 18:31:00,61.7,46.8,30.05,SSE,166,2.0,3.0,58,0.00,,,0.00,Wunderground v.1.15,2013-02-17 02:31:00,
2013-02-16 18:36:00,61.2,46.8,30.05,SSE,166,2.0,4.0,59,0.00,,,0.00,Wunderground v.1.15,2013-02-17 02:36:00,
2013-02-16 18:41:00,60.8,46.8,30.05,SSE,166,2.0,4.0,60,0.00,,,0.00,Wunderground v.1.15,2013-02-17 02:41:00,
2013-02-16 18:46:00,60.4,47.3,30.05,SSE,166,1.0,5.0,62,0.00,,,0.00,Wunderground v.1.15,2013-02-17 02:46:00,
2013-02-16 18:51:00,60.0,47.8,30.05,South,171,3.0,5.0,64,0.00,,,0.00,Wunderground v.1.15,2013-02-17 02:51:00,
2013-02-16 18:56:00,59.7,47.5,30.05,South,172,4.0,7.0,64,0.00,,,0.00,Wunderground v.1.15,2013-02-17 02:56:00,
2013-02-16 19:01:00,59.5,47.7,30.05,South,174,4.0,6.0,65,0.00,,,0.00,Wunderground v.1.15,2013-02-17 03:01:00,
2013-02-16 19:06:00,59.3,47.9,30.05,South,174,2.0,6.0,66,0.00,,,0.00,Wunderground v.1.15,2013-02-17 03:06:00,
2013-02-16 19:11:00,59.1,47.7,30.05,South,174,4.0,6.0,66,0.00,,,0.00,Wunderground v.1.15,2013-02-17 03:11:00,
2013-02-16 19:16:00,59.0,48.1,30.04,South,174,4.0,6.0,67,0.00,,,0.00,Wunderground v.1.15,2013-02-17 03:16:00,
2013-02-16 19:21:00,58.8,47.9,30.04,South,174,4.0,5.0,67,0.00,,,0.00,Wunderground v.1.15,2013-02-17 03:21:00,
2013-02-16 19:26:00,58.8,47.9,30.04,South,174,3.0,5.0,67,0.00,,,0.00,Wunderground v.1.15,2013-02-17 03:26:00,
2013-02-16 19:31:00,58.6,47.7,30.04,South,174,3.0,4.0,67,0.00,,,0.00,Wunderground v.1.15,2013-02-17 03:31:00,
2013-02-16 19:36:00,58.5,48.0,30.04,South,175,4.0,6.0,68,0.00,,,0.00,Wunderground v.1.15,2013-02-17 03:36:00,
2013-02-16 19:41:00,58.3,47.8,30.04,South,175,3.0,5.0,68,0.00,,,0.00,Wunderground v.1.15,2013-02-17 03:41:00,
2013-02-16 19:47:00,58.1,47.6,30.04,South,175,3.0,5.0,68,0.00,,,0.00,Wunderground v.1.15,2013-02-17 03:47:00,
2013-02-16 19:52:00,58.0,47.5,30.04,South,175,3.0,5.0,68,0.00,,,0.00,Wunderground v.1.15,2013-02-17 03:52:00,
2013-02-16 19:56:00,57.8,47.3,30.04,South,175,2.0,5.0,68,0.00,,,0.00,Wunderground v.1.15,2013-02-17 03:56:00,
2013-02-16 20:02:00,57.6,47.5,30.04,South,175,3.0,4.0,69,0.00,,,0.00,Wunderground v.1.15,2013-02-17 04:02:00,
2013-02-16 20:07:00,57.3,47.2,30.04,South,175,2.0,4.0,69,0.00,,,0.00,Wunderground v.1.15,2013-02-17 04:07:00,
2013-02-16 20:12:00,57.0,47.3,30.03,South,175,0.0,1.0,70,0.00,,,0.00,Wunderground v.1.15,2013-02-17 04:12:00,
2013-02-16 20:17:00,56.8,47.1,30.03,South,175,0.0,1.0,70,0.00,,,0.00,Wunderground v.1.15,2013-02-17 04:17:00,
2013-02-16 20:22:00,56.4,47.1,30.04,South,175,0.0,2.0,71,0.00,,,0.00,Wunderground v.1.15,2013-02-17 04:22:00,
2013-02-16 20:27:00,56.0,47.1,30.04,South,175,1.0,3.0,72,0.00,,,0.00,Wunderground v.1.15,2013-02-17 04:27:00,
2013-02-16 20:32:00,55.7,46.8,30.03,South,175,0.0,1.0,72,0.00,,,0.00,Wunderground v.1.15,2013-02-17 04:32:00,
2013-02-16 20:37:00,55.4,46.9,30.03,South,175,0.0,2.0,73,0.00,,,0.00,Wunderground v.1.15,2013-02-17 04:37:00,
2013-02-16 20:42:00,55.2,46.7,30.03,South,175,0.0,0.0,73,0.00,,,0.00,Wunderground v.1.15,2013-02-17 04:42:00,
2013-02-16 20:47:00,55.0,46.5,30.03,South,175,0.0,0.0,73,0.00,,,0.00,Wunderground v.1.15,2013-02-17 04:47:00,
2013-02-16 20:52:00,54.8,46.3,30.03,South,175,0.0,0.0,73,0.00,,,0.00,Wunderground v.1.15,2013-02-17 04:52:00,
2013-02-16 20:57:00,54.5,46.4,30.03,South,175,0.0,0.0,74,0.00,,,0.00,Wunderground v.1.15,2013-02-17 04:57:00,
2013-02-16 21:00:00,54.4,46.3,30.03,South,175,0.0,0.0,74,0.00,,,0.00,Wunderground v.1.15,2013-02-17 05:00:00,
2013-02-16 21:05:00,54.2,46.1,30.03,South,175,0.0,1.0,74,0.00,,,0.00,Wunderground v.1.15,2013-02-17 05:05:00,
2013-02-16 21:10:00,54.0,46.3,30.03,South,175,0.0,0.0,75,0.00,,,0.00,Wunderground v.1.15,2013-02-17 05:10:00,
2013-02-16 21:15:00,53.7,46.0,30.03,South,175,0.0,0.0,75,0.00,,,0.00,Wunderground v.1.15,2013-02-17 05:15:00,
2013-02-16 21:20:00,53.5,45.8,30.03,South,175,0.0,0.0,75,0.00,,,0.00,Wunderground v.1.15,2013-02-17 05:20:00,
2013-02-16 21:25:00,53.2,45.5,30.03,South,175,0.0,1.0,75,0.00,,,0.00,Wunderground v.1.15,2013-02-17 05:25:00,
2013-02-16 21:30:00,53.0,45.6,30.03,South,175,0.0,0.0,76,0.00,,,0.00,Wunderground v.1.15,2013-02-17 05:30:00,
2013-02-16 21:35:00,52.8,45.4,30.03,South,175,0.0,0.0,76,0.00,,,0.00,Wunderground v.1.15,2013-02-17 05:35:00,
2013-02-16 21:40:00,52.5,45.2,30.03,South,175,1.0,1.0,76,0.00,,,0.00,Wunderground v.1.15,2013-02-17 05:40:00,
2013-02-16 21:45:00,52.2,45.2,30.04,South,175,0.0,2.0,77,0.00,,,0.00,Wunderground v.1.15,2013-02-17 05:45:00,
2013-02-16 21:50:00,51.9,45.3,30.03,South,175,0.0,1.0,78,0.00,,,0.00,Wunderground v.1.15,2013-02-17 05:50:00,
2013-02-16 21:55:00,51.8,45.2,30.03,South,175,0.0,1.0,78,0.00,,,0.00,Wunderground v.1.15,2013-02-17 05:55:00,
2013-02-16 22:00:00,51.6,45.0,30.03,South,175,0.0,0.0,78,0.00,,,0.00,Wunderground v.1.15,2013-02-17 06:00:00,
2013-02-16 22:05:00,51.4,44.8,30.03,South,175,0.0,0.0,78,0.00,,,0.00,Wunderground v.1.15,2013-02-17 06:05:00,
2013-02-16 22:10:00,51.2,44.6,30.03,South,175,0.0,0.0,78,0.00,,,0.00,Wunderground v.1.15,2013-02-17 06:10:00,
2013-02-16 22:15:00,51.0,44.7,30.03,South,175,0.0,0.0,79,0.00,,,0.00,Wunderground v.1.15,2013-02-17 06:15:00,
2013-02-16 22:20:00,50.9,44.6,30.03,South,175,0.0,0.0,79,0.00,,,0.00,Wunderground v.1.15,2013-02-17 06:20:00,
2013-02-16 22:25:00,50.6,44.3,30.03,South,175,0.0,1.0,79,0.00,,,0.00,Wunderground v.1.15,2013-02-17 06:25:00,
2013-02-16 22:30:00,50.4,44.1,30.02,South,175,0.0,0.0,79,0.00,,,0.00,Wunderground v.1.15,2013-02-17 06:30:00,
2013-02-16 22:35:00,50.2,44.3,30.03,South,175,0.0,1.0,80,0.00,,,0.00,Wunderground v.1.15,2013-02-17 06:35:00,
2013-02-16 22:40:00,49.9,44.0,30.02,South,175,0.0,0.0,80,0.00,,,0.00,Wunderground v.1.15,2013-02-17 06:40:00,
2013-02-16 22:45:00,49.7,43.8,30.02,South,175,0.0,1.0,80,0.00,,,0.00,Wunderground v.1.15,2013-02-17 06:45:00,
2013-02-16 22:50:00,49.5,43.9,30.02,South,175,0.0,0.0,81,0.00,,,0.00,Wunderground v.1.15,2013-02-17 06:50:00,
2013-02-16 22:55:00,49.4,43.8,30.02,South,175,0.0,0.0,81,0.00,,,0.00,Wunderground v.1.15,2013-02-17 06:55:00,
2013-02-16 23:00:00,49.2,43.6,30.02,South,175,0.0,1.0,81,0.00,,,0.00,Wunderground v.1.15,2013-02-17 07:00:00,
2013-02-16 23:05:00,49.1,43.5,30.02,South,175,0.0,1.0,81,0.00,,,0.00,Wunderground v.1.15,2013-02-17 07:05:00,
2013-02-16 23:10:00,48.9,43.3,30.02,South,175,0.0,0.0,81,0.00,,,0.00,Wunderground v.1.15,2013-02-17 07:10:00,
2013-02-16 23:15:00,48.7,43.5,30.02,South,175,0.0,0.0,82,0.00,,,0.00,Wunderground v.1.15,2013-02-17 07:15:00,
2013-02-16 23:20:00,48.6,43.4,30.01,South,175,0.0,0.0,82,0.00,,,0.00,Wunderground v.1.15,2013-02-17 07:20:00,
2013-02-16 23:25:00,48.5,43.3,30.01,South,175,0.0,0.0,82,0.00,,,0.00,Wunderground v.1.15,2013-02-17 07:25:00,
2013-02-16 23:31:00,48.4,43.2,30.02,South,175,1.0,1.0,82,0.00,,,0.00,Wunderground v.1.15,2013-02-17 07:31:00,
2013-02-16 23:36:00,48.2,43.0,30.01,South,175,0.0,2.0,82,0.00,,,0.00,Wunderground v.1.15,2013-02-17 07:36:00,
2013-02-16 23:41:00,48.2,42.6,30.01,South,175,0.0,2.0,81,0.00,,,0.00,Wunderground v.1.15,2013-02-17 07:41:00,
2013-02-16 23:46:00,48.0,42.8,30.01,South,175,0.0,2.0,82,0.00,,,0.00,Wunderground v.1.15,2013-02-17 07:46:00,
2013-02-16 23:51:00,47.9,42.7,30.01,South,175,0.0,0.0,82,0.00,,,0.00,Wunderground v.1.15,2013-02-17 07:51:00,
2013-02-16 23:56:00,47.8,42.6,30.01,South,175,0.0,0.0,82,0.00,,,0.00,Wunderground v.1.15,2013-02-17 07:56:00,